Regional Weather Roundup
Issued by NWS

Home | Current Version | Previous Version | Graphics & Text | Print | Product List | Glossary On
Versions: 1 2 3 4 5 6 7 8 9 10 11 12 13 14 15 16 17 18 19 20 21 22 23 24 25 26 27
000
ASUS45 KBOU 172006
RWRCO

WEATHER ROUNDUP FOR COLORADO
NATIONAL WEATHER SERVICE DENVER/BOULDER CO
200 PM MDT THU APR 17 2014

NOTE: "FAIR" INDICATES FEW OR NO CLOUDS BELOW 12000 FEET WITH NO
SIGNIFICANT WEATHER AND/OR OBSTRUCTIONS TO VISIBILITY.

COZ001>005-013-030-031-172100-
...NORTHWEST COLORADO...

CITY           SKY/WX    TMP DP  RH WIND       PRES   REMARKS
CRAIG          SUNNY     57  22  25 W7        30.07F
HAYDEN         SUNNY     52  19  28 NE6       30.11F
MEEKER         SUNNY     59  19  21 NE6       30.07F
MOUNT WERNER   NOT AVBL
STEAMBOAT SPGS SUNNY     52  11  19 CALM      30.09F
WALDEN         SUNNY     48  16  27 SW13      30.11S
$$

COZ006>008-011-172100-
...WEST CENTRAL VALLEYS...

CITY           SKY/WX    TMP DP  RH WIND       PRES   REMARKS
GRAND JUNCTION SUNNY     61  24  24 W5        30.07F
MONTROSE       SUNNY     62  20  19 VRB5      30.09F
EAGLE          MOSUNNY   57  19  23 SW12G26   30.10F
RIFLE          SUNNY     62  18  18 W16       30.06F
DELTA          SUNNY     65  22  19 N5        30.07F
NUCLA            N/A     61  21  21 SW8       30.14F
$$

COZ017>023-064>068-172100-
...SOUTHWEST COLORADO...

CITY           SKY/WX    TMP DP  RH WIND       PRES   REMARKS
DURANGO        SUNNY     60  15  17 VRB3      30.13F
CORTEZ         SUNNY     64  20  18 W9        30.11F
PAGOSA SPRINGS SUNNY     57  14  18 CALM      30.16S
TELLURIDE      SUNNY     50  18  27 W9        30.19S
WOLF CREEK PAS NOT AVBL
$$

COZ009-010-012-014-032>034-037-058>063-172100-
...CENTRAL COLORADO...

CITY           SKY/WX    TMP DP  RH WIND       PRES   REMARKS
ASPEN          MOSUNNY   55  16  21 E6        30.11S
BUENA VISTA    SUNNY     49  30  49 SE6       30.13F
COPPER MTN     MOSUNNY   37  12  35 W12G24    30.23S
BERTHOUD PASS  FAIR      28  19  69 N12G20    30.24R WCI  18
COTTONWOOD PAS SUNNY     45  28  53 S7        30.18S
GUNNISON       SUNNY     54  18  24 SW9       30.17F
KREMMLING      SUNNY     54  14  20 SW7G18    30.11S
LEADVILLE      SUNNY     41  12  30 NW9       30.16R
MONARCH PASS   SUNNY     32  18  55 W30G43    30.34S WCI  18
SALIDA         SUNNY     56  26  32 E10G18    30.18F
SUNLIGHT       MOSUNNY   43  21  42 SW3       30.24S
WILKERSON PASS MOSUNNY   36  27  69 S7        30.23S
$$

COZ069>075-172100-
...SAN LUIS VALLEY/SANGRE DE CRISTO MOUNTAINS...

CITY           SKY/WX    TMP DP  RH WIND       PRES   REMARKS
ALAMOSA        SUNNY     49  29  46 VRB3      30.16F
LA VETA PASS   SUNNY     39  28  65 SW9G17    30.22S
SAGUACHE       NOT AVBL
$$

COZ035-036-038>040-172100-
...NORTHERN COLORADO FRONT RANGE...

CITY           SKY/WX    TMP DP  RH WIND       PRES   REMARKS
DENVER INTL AP PTSUNNY   61  19  19 N7        30.04F
DMNS CITY PARK   N/A     62  19  19 SW2G12    30.01F
AURORA         PTSUNNY   59  21  23 E8        30.05F
FRONT RANGE AP MOSUNNY   63  23  22 CALM      30.05F
ERIE MUNI ARPT MOSUNNY   59  24  26 CALM      30.03F
BOULDER MUN AP MOSUNNY   59  30  33 NE9       30.03F
CENTENNIAL     PTSUNNY   58  28  32 SE15G24   30.05S
BROOMFIELD     MOSUNNY   59  27  29 E5        30.04F
FORT COLLINS   SUNNY     59  30  33 S7        30.06F
LONGMONT       SUNNY     63  30  29 E5        30.06F
$$

COZ041-046-047-076>085-087-088-172100-
...PIKES PEAK/PALMER DIVIDE AND SOUTHERN FOOTHILLS...

CITY           SKY/WX    TMP DP  RH WIND       PRES   REMARKS
COLO. SPRINGS  PTSUNNY   49  34  56 SE14      30.14F
A. F. ACADEMY  PTSUNNY   46  36  68 SE13      30.13F
ELLICOTT       NOT AVBL
FALCON         CLOUDY    46  33  61 S14       30.16S
FORT CARSON    MOSUNNY   52  35  52 SE15G23   30.12F
LIMON          MOSUNNY   53  32  44 S22G32    30.13F
MONUMENT HILL  MOSUNNY   45  34  65 S22       30.11S
TRINIDAD       MOSUNNY   52  36  54 SW8       30.15F
$$

COZ042>045-048>051-090-091-172100-
...NORTHEAST COLORADO...

CITY           SKY/WX    TMP DP  RH WIND       PRES   REMARKS
GREELEY ARPT   SUNNY     59  23  25 NE3       30.05F
AKRON          CLOUDY    59  32  36 S22G32    30.06F
BURLINGTON     CLOUDY    47  37  68 S17       30.18S
WRAY           CLOUDY    55  37  52 S16G22    30.14F
STERLING       MOSUNNY   64  39  39 S15G22    30.04F
HOLYOKE        MOSUNNY   54  37  54 S18G26    30.14F
FORT MORGAN    SUNNY     61  21  21 CALM      30.06S
$$

COZ086-089-092>099-172100-
...SOUTHEAST COLORADO...

CITY           SKY/WX    TMP DP  RH WIND       PRES   REMARKS
PUEBLO         SUNNY     55  36  48 S10       30.12F
LA JUNTA       PTSUNNY   55  37  50 SE14      30.15F
LAMAR          CLOUDY    52  39  61 S12       30.17F
SPRINGFIELD      N/A     46  38  73 S10       30.21F
$$



USA.gov is the U.S. government's official web portal to all federal, state and local government web resources and services.